Location: La Brionne
(46.1728°N, 1.7849°E)
Time: 18:07:58
(UTC+00:00)

Cosmos 1544 Rocket - Pass Details

Date: 25 October 2021
Orbit: 603 x 632 km, 82.5° (Epoch: 27 November)

Event Time Altitude Azimuth Distance (km) Brightness Sun altitude
Rises 03:25:50 0° 9° (N) 2,910 7.3 -31.2°
Reaches altitude 10° 03:29:30 10° 40° (NE) 1,990 6.8 -30.6°
Maximum altitude 03:31:15 12° 64° (ENE) 1,846 6.8 -30.3°
Drops below altitude 10° 03:32:59 10° 88° (E) 1,977 7.0 -30.0°
Sets 03:36:34 0° 119° (ESE) 2,868 7.6 -29.4°
